Weather History for Cadillac, MI

Change the Weather History Date:

Sunday, October 14, 2012

  Actual Average Record
Temperature  
Mean Temperature 55 °F -  
Max Temperature 64 °F 57 °F 78 °F (1975)
Min Temperature 45 °F 35 °F 19 °F (1993)
Degree Days  
Heating Degree Days 10    
Growing Degree Days 5 (Base 50)    
Moisture  
Dew Point 55 °F    
Average Humidity 89    
Maximum Humidity 94    
Minimum Humidity 83    
Precipitation  
Precipitation 0.00 in - - ()
Sea Level Pressure  
Sea Level Pressure 29.51 in    
Wind  
Wind Speed 8 mph (SSW)    
Max Wind Speed 25 mph    
Max Gust Speed 40 mph    
Visibility 6 miles    
Events Fog , Rain    
Averages and records for this station are not official NWS values.
T = Trace of Precipitation, MM = Missing Value Source: NWS Daily Summary

Daily Weather History Graph

Daily Weather History Graph

Search for Another Location

Airport:

Trip Planner

Search our weather history database for the weather conditions in past years. The results will help you decide how hot, cold, wet, or windy it might be!

Date:

Astronomy

Oct. 14, 2012 Rise Set
Actual Time 7:55 AM EDT 6:58 PM EDT
Civil Twilight 7:26 AM EDT 7:27 PM EDT
Nautical Twilight 6:53 AM EDT 8:01 PM EDT
Astronomical Twilight 6:19 AM EDT 8:34 PM EDT
Moon 6:53 AM EDT (10/14) 6:17 PM EDT (10/14)
Length of Visible Light 12h 00m
Length of Day
11h 02m
Waning Crescent, 1% of the Moon is Illuminated
Oct 14
Waning Crescent
Oct 15
New
Oct 21
First Quarter
Oct 29
Full
Nov 6
Last Quarter

Hourly Weather History & Observations

Time (EDT) Temp. Windchill Dew Point Humidity Pressure Visibility Wind Dir Wind Speed Gust Speed Precip Events Conditions
12:35 AM 53.6 °F - 51.8 °F 94% 29.78 in 2.0 mi SW 4.6 mph - N/A   Drizzle
3:15 AM 53.6 °F - 51.8 °F 94% 29.76 in 1.0 mi ENE 3.5 mph - N/A   Drizzle
3:35 AM 53.6 °F - 51.8 °F 94% 29.74 in 0.8 mi ENE 3.5 mph - N/A   Overcast
3:55 AM 53.6 °F - 51.8 °F 94% 29.74 in 1.0 mi SSE 3.5 mph - N/A   Overcast
4:15 AM 57.2 °F - 53.6 °F 88% 29.74 in 0.5 mi Calm Calm - N/A Fog Fog
4:35 AM 57.2 °F - 53.6 °F 88% 29.74 in 0.5 mi Calm Calm - N/A Fog Fog
4:55 AM 57.2 °F - 53.6 °F 88% 29.74 in 0.2 mi Calm Calm - N/A Rain Rain
5:15 AM 57.2 °F - 53.6 °F 88% 29.73 in 0.5 mi NE 3.5 mph - N/A   Drizzle
5:35 AM 57.2 °F - 53.6 °F 88% 29.74 in 1.2 mi Calm Calm - N/A Rain Rain
5:55 AM 57.2 °F - - N/A% - 3.0 mi NE 4.6 mph - N/A Rain Rain
7:35 AM 57.2 °F - 53.6 °F 88% 29.68 in 5.0 mi East 3.5 mph - N/A Rain Rain
7:37 AM 56.5 °F - 54.5 °F 93% 29.68 in 5.0 mi ENE 4.6 mph - N/A Rain Rain
7:54 AM 56.5 °F - 54.5 °F 93% 29.67 in 5.0 mi Calm Calm - N/A Rain Light Rain
8:14 AM 56.5 °F - 54.5 °F 93% 29.67 in 2.5 mi Calm Calm - N/A Rain Rain
8:34 AM 56.5 °F - 54.5 °F 93% 29.66 in 4.0 mi Calm Calm - N/A Rain Rain
8:54 AM 61.2 °F - 58.8 °F 92% 29.65 in 3.0 mi South 8.1 mph - N/A Rain Rain
9:14 AM 61.7 °F - 59.4 °F 92% 29.63 in 3.0 mi South 5.8 mph - N/A Rain Light Rain
9:34 AM 61.7 °F - 59.2 °F 91% 29.61 in 4.0 mi SSE 5.8 mph - N/A Rain Light Rain
9:54 AM 61.7 °F - 59.2 °F 91% 29.59 in 5.0 mi SSE 4.6 mph - N/A Rain Light Rain
10:14 AM 61.7 °F - 59.2 °F 91% 29.58 in 7.0 mi SSE 5.8 mph - N/A Rain Light Rain
10:34 AM 61.7 °F - 59.2 °F 91% 29.57 in 10.0 mi SSE 8.1 mph - N/A Rain Rain
10:55 AM 61.7 °F - 59.2 °F 91% 29.56 in 10.0 mi SSE 3.5 mph - N/A Rain Light Rain
11:14 AM 61.7 °F - 59.2 °F 91% 29.54 in 3.0 mi SSE 4.6 mph - N/A Rain Heavy Rain
11:34 AM 61.7 °F - 59.2 °F 91% 29.52 in 3.0 mi SSE 3.5 mph - N/A Rain Rain
11:54 AM 61.7 °F - 59.2 °F 91% 29.50 in 2.0 mi SSE 3.5 mph - N/A Rain Heavy Rain
12:14 PM 61.7 °F - 59.2 °F 91% 29.49 in 2.5 mi South 4.6 mph - N/A Rain Heavy Rain
12:34 PM 61.7 °F - 59.2 °F 91% 29.48 in 4.0 mi SSW 13.8 mph 21.9 mph N/A Rain Heavy Rain
12:54 PM 61.7 °F - 59.0 °F 91% 29.48 in 3.0 mi SSW 20.7 mph 33.4 mph N/A Rain Rain
1:14 PM 61.7 °F - 59.0 °F 91% 29.48 in 7.0 mi SSW 25.3 mph 40.3 mph N/A Rain Light Rain
1:34 PM 61.7 °F - 58.5 °F 89% 29.47 in 10.0 mi SSW 23.0 mph 33.4 mph N/A   Overcast
1:54 PM 62.2 °F - 58.6 °F 88% 29.46 in 10.0 mi SSW 17.3 mph 29.9 mph N/A   Overcast
2:14 PM 62.6 °F - 58.6 °F 87% 29.45 in 10.0 mi SSW 23.0 mph 34.5 mph N/A   Light Drizzle
2:34 PM 62.8 °F - 58.3 °F 85% 29.45 in 10.0 mi SSW 20.7 mph 28.8 mph N/A   Overcast
2:54 PM 64.0 °F - 59.0 °F 84% 29.43 in 10.0 mi SSW 16.1 mph 28.8 mph N/A   Overcast
3:14 PM 64.0 °F - 58.6 °F 83% 29.42 in 10.0 mi SSW 18.4 mph 24.2 mph N/A   Overcast
3:35 PM 63.5 °F - 58.1 °F 83% 29.41 in 10.0 mi SSW 18.4 mph 28.8 mph N/A   Overcast
3:54 PM 63.1 °F - 57.7 °F 83% 29.39 in 10.0 mi SSW 15.0 mph 23.0 mph N/A   Overcast
4:14 PM 62.8 °F - 58.3 °F 85% 29.38 in 10.0 mi South 10.4 mph 17.3 mph N/A Rain Light Rain
4:35 PM 61.7 °F - 58.1 °F 88% 29.38 in 4.0 mi SSW 10.4 mph 16.1 mph N/A Rain Light Rain
4:54 PM 61.7 °F - 58.1 °F 88% 29.37 in 10.0 mi SW 12.7 mph 20.7 mph N/A Rain Light Rain
5:14 PM 61.7 °F - 57.7 °F 87% 29.36 in 10.0 mi SSW 15.0 mph 24.2 mph N/A   Light Drizzle
5:35 PM 61.7 °F - 57.7 °F 87% 29.35 in 10.0 mi SSW 17.3 mph 24.2 mph N/A   Overcast
5:54 PM 61.7 °F - 57.7 °F 87% 29.35 in 10.0 mi SSW 20.7 mph 27.6 mph N/A Rain Rain
6:14 PM 61.7 °F - 57.7 °F 87% 29.35 in 10.0 mi SW 17.3 mph 25.3 mph N/A Rain Light Rain
6:34 PM 61.7 °F - 57.7 °F 87% 29.35 in 10.0 mi SSW 11.5 mph - N/A   Overcast
6:54 PM 59.4 °F - 56.1 °F 89% 29.34 in 5.0 mi SW 17.3 mph 24.2 mph N/A Rain Light Rain
7:14 PM 59.0 °F - 55.6 °F 88% 29.35 in 10.0 mi SW 17.3 mph 26.5 mph N/A   Light Drizzle
7:34 PM 58.5 °F - 55.0 °F 88% 29.35 in 7.0 mi SW 19.6 mph 25.3 mph N/A   Light Drizzle
7:54 PM 56.5 °F - 53.1 °F 88% 29.36 in 10.0 mi WSW 12.7 mph 25.3 mph N/A   Overcast
8:14 PM 55.9 °F - 52.5 °F 88% 29.37 in 5.0 mi West 12.7 mph 25.3 mph N/A   Heavy Drizzle
8:34 PM 51.8 °F - 48.6 °F 89% 29.39 in 7.0 mi West 15.0 mph 20.7 mph N/A   Overcast
8:54 PM 51.4 °F - 48.2 °F 89% 29.40 in 10.0 mi WNW 18.4 mph 25.3 mph N/A   Overcast
9:14 PM 51.4 °F - 48.2 °F 89% 29.41 in 10.0 mi WNW 16.1 mph 25.3 mph N/A   Overcast
9:34 PM 50.4 °F - 46.9 °F 88% 29.41 in 7.0 mi WNW 17.3 mph 21.9 mph N/A   Overcast
9:54 PM 49.1 °F - 45.7 °F 88% 29.42 in 5.0 mi WNW 12.7 mph 23.0 mph N/A   Overcast
10:14 PM 49.1 °F - 45.5 °F 87% 29.42 in 4.0 mi WNW 12.7 mph 25.3 mph N/A   Drizzle
10:34 PM 49.1 °F - 45.7 °F 88% 29.43 in 5.0 mi WNW 21.9 mph 29.9 mph N/A Rain Light Rain
10:54 PM 47.3 °F - 43.9 °F 88% 29.44 in 5.0 mi WNW 20.7 mph 28.8 mph N/A   Overcast
11:14 PM 46.4 °F 39.0 °F 43.0 °F 88% 29.45 in 5.0 mi WNW 19.6 mph 26.5 mph N/A   Overcast
11:34 PM 46.2 °F 39.0 °F 42.8 °F 88% 29.46 in 10.0 mi NW 18.4 mph 25.3 mph N/A   Overcast
11:54 PM 45.7 °F 38.0 °F 42.3 °F 88% 29.47 in 7.0 mi WNW 19.6 mph 26.5 mph N/A   Overcast